Location: Grand N�rat
(46.1700°N, 1.5819°E)
Time: 02:06:24
(UTC+00:00)

Daily predictions for brighter satellites

Satellite Brightness Start Highest point End
(mag) Time Altitude Azimuth Time Altitude Azimuth Time Altitude Azimuth
USA 215 4.3 02:50:04 10° NE 02:54:03 40° NE 02:54:03 40° NE
Cosmos 2237 Rocket 4.1 03:19:53 23° NNE 03:19:53 23° NNE 03:21:58 10° NNE
NOSS 3-1 (A) 4.3 03:19:35 63° SE 03:19:35 63° SE 03:26:41 10° SE
CZ-4C R/B 3.8 03:21:53 29° NNE 03:21:53 29° NNE 03:25:09 10° NNE
Cosmos 2219 Rocket 4.4 03:26:42 15° N 03:26:42 15° N 03:27:59 10° N
USA 267 4.4 03:23:42 10° SE 03:26:50 31° SE 03:26:50 31° SE
Cosmos 1943 Rocket 3.2 03:37:56 39° NNE 03:38:47 42° NE 03:43:58 10° SE
Lacrosse 5 3.1 03:45:19 37° E 03:45:19 37° E 03:48:29 10° ESE
ATLAS CENTAUR R/B 3.5 03:52:19 24° NNE 03:52:19 24° NNE 03:54:05 10° NNE
PAYLOAD A 4.5 03:54:37 10° NNE 03:58:45 57° ENE 03:58:45 57° ENE
SL-16 R/B 2.6 04:01:35 55° N 04:01:35 55° N 04:06:05 10° NNE
MSX 3.9 03:55:17 10° NNE 04:00:17 68° N 04:00:17 68° N
CZ-2C R/B 3.0 03:56:05 10° NNE 04:01:12 57° E 04:01:40 55° ESE
Cosmos 2251 Rocket 4.1 04:03:08 50° NNE 04:03:08 50° NNE 04:07:02 10° NNE
IDEFIX/ARIANE 42P 4.0 04:03:04 10° N 04:05:34 27° N 04:05:34 27° N
BREEZE-M DEB (TANK) 3.2 04:09:15 68° NNE 04:09:17 68° NNE 04:19:35 10° E
Cosmos 2369 Rocket 2.7 04:06:41 18° NNW 04:10:57 58° ENE 04:16:34 10° SE
H-2A R/B 3.9 04:08:14 10° NNE 04:12:24 39° E 04:15:05 19° SSE
Cosmos 1339 Rocket 4.3 04:15:29 43° S 04:17:39 88° E 04:23:48 10° N
Cosmos 1943 4.5 04:15:53 10° S 04:21:01 38° ESE 04:26:11 10° NE
Aureole 2 Rocket 4.5 04:25:19 23° ESE 04:25:19 23° ESE 04:26:55 10° SE
Cosmos 1743 Rocket 3.9 04:22:52 10° N 04:27:11 62° E 04:31:28 10° SSE
Cosmos 2333 Rocket 4.4 04:37:44 10° NNW 04:37:44 10° NNW 04:38:17 10° NNW
USA 215 3.9 04:33:11 10° NE 04:39:13 41° NNW 04:41:24 32° NW
ADEOS 3.7 04:34:52 10° N 04:39:45 51° WNW 04:39:45 51° WNW
Cosmos 407 Rocket 4.0 04:35:15 11° S 04:40:18 60° ESE 04:45:31 10° NNE
Cosmos 1842 Rocket 3.4 04:40:30 61° SSW 04:41:15 83° W 04:45:46 10° N
Meteor 2-3 Rocket 3.6 04:35:51 10° NNW 04:41:37 76° W 04:47:23 10° S
Cosmos 1459 Rocket 4.5 04:39:32 10° N 04:45:39 61° ENE 04:51:51 10° SSE
BREEZE M DEB (TANK) 3.1 04:45:29 51° N 04:45:46 53° N 04:51:50 10° E
Cosmos 921 Rocket 3.5 04:41:53 10° NNW 04:46:17 61° ENE 04:50:35 10° SSE
GEOS 3 Rocket 3.9 04:41:33 10° NE 04:46:51 68° SE 04:50:29 21° SSW
Cosmos 1484 Rocket 3.2 04:43:47 10° NNE 04:47:44 63° E 04:51:41 10° S
BREEZE M DEB (TANK) 4.3 04:44:01 23° WNW 04:51:27 46° SW 04:55:53 10° SSE
STARLINK-1070 3.4 04:54:20 53° E 04:54:20 53° E 04:56:48 10° ENE
STARLINK-1124 3.4 04:54:41 53° ENE 04:54:41 53° ENE 04:57:02 10° ENE
STARLINK-1066 3.4 04:54:55 53° E 04:54:55 53° E 04:57:22 10° ENE
STARLINK-1081 3.4 04:55:08 54° E 04:55:08 54° E 04:57:36 10° ENE
STARLINK-1069 3.3 04:55:34 55° E 04:55:34 55° E 04:58:03 10° ENE
STARLINK-1085 3.3 04:55:46 55° E 04:55:46 55° E 04:58:17 10° ENE
STARLINK-1086 3.3 04:56:03 56° E 04:56:03 56° E 04:58:33 10° ENE
STARLINK-1095 3.3 04:56:13 56° E 04:56:13 56° E 04:58:44 10° ENE
STARLINK-1077 3.3 04:56:24 56° E 04:56:24 56° E 04:58:55 10° ENE
STARLINK-1075 3.2 04:56:39 57° E 04:56:39 57° E 04:59:11 10° ENE
STARLINK-1093 3.2 04:56:52 58° E 04:56:52 58° E 04:59:24 10° ENE
STARLINK-1104 4.5 04:55:03 29° SSW 04:56:39 45° SE 05:00:34 10° ENE
STARLINK-1074 3.2 04:57:06 59° E 04:57:06 59° E 04:59:40 10° ENE
STARLINK-1087 3.2 04:57:18 59° E 04:57:18 59° E 04:59:52 10° ENE
STARLINK-1088 3.2 04:57:29 59° E 04:57:29 59° E 05:00:02 10° ENE
Meteor 2-10 Rocket 4.4 04:58:01 30° NW 04:58:01 30° NW 05:01:43 10° N
STARLINK-1115 3.2 04:57:44 60° E 04:57:44 60° E 05:00:19 10° ENE
STARLINK-1076 3.1 04:57:57 61° E 04:57:57 61° E 05:00:33 10° ENE
STARLINK-1092 3.1 04:58:10 61° E 04:58:10 61° E 05:00:45 10° ENE
STARLINK-1080 3.1 04:58:22 62° E 04:58:22 62° E 05:00:58 10° ENE
STARLINK-1090 3.1 04:58:36 62° E 04:58:36 62° E 05:01:13 10° ENE
STARLINK-1089 3.1 04:58:51 63° E 04:58:51 63° E 05:01:30 10° ENE
Cosmos 2221 2.3 04:56:38 29° SSW 04:58:44 70° W 05:03:03 10° N
STARLINK-1107 3.1 04:59:03 63° E 04:59:03 63° E 05:01:40 10° ENE
STARLINK-1109 3.0 04:59:14 64° E 04:59:14 64° E 05:01:53 10° ENE
STARLINK-1091 3.0 04:59:29 65° E 04:59:29 65° E 05:02:07 10° ENE
STARLINK-1072 3.0 04:59:39 65° E 04:59:39 65° E 05:02:19 10° ENE
Cosmos 614 Rocket 3.9 04:55:34 18° SSW 04:59:30 84° WNW 05:04:44 10° NNE
STARLINK-1096 3.0 04:59:53 65° E 04:59:53 65° E 05:02:32 10° ENE
COSMO-SKYMED 1 2.7 04:55:25 10° SSE 04:59:44 77° ENE 05:04:06 10° N
STARLINK-1079 3.0 05:00:06 66° E 05:00:06 66° E 05:02:47 10° ENE
STARLINK-1116 2.9 05:00:20 67° E 05:00:20 67° E 05:03:01 10° ENE
STARLINK-1094 2.9 05:00:46 68° ESE 05:00:46 68° ESE 05:03:28 10° ENE
STARLINK-1117 2.9 05:00:58 69° ESE 05:00:58 69° ESE 05:03:41 10° ENE
STARLINK-1078 2.9 05:01:12 70° ESE 05:01:12 70° ESE 05:03:56 10° ENE
STARLINK-1144 4.3 04:59:24 28° SSW 05:01:10 48° SE 05:05:07 10° ENE
STARLINK-1108 2.9 05:01:25 70° ESE 05:01:25 70° ESE 05:04:08 10° ENE
STARLINK-1071 2.9 05:01:37 70° ESE 05:01:37 70° ESE 05:04:20 10° ENE
Cosmos 2237 Rocket 4.0 05:01:42 15° NW 05:01:42 15° NW 05:04:39 10° N
STARLINK-1110 2.8 05:01:52 71° ESE 05:01:52 71° ESE 05:04:37 10° ENE
STARLINK-1122 2.8 05:02:15 73° ESE 05:02:15 73° ESE 05:05:01 10° ENE
STARLINK-1126 2.8 05:02:29 73° ESE 05:02:29 73° ESE 05:05:15 10° ENE
STARLINK-1082 2.8 05:02:43 74° ESE 05:02:43 74° ESE 05:05:30 10° ENE
STARLINK-1100 2.8 05:02:56 74° ESE 05:02:56 74° ESE 05:05:43 10° ENE
STARLINK-1083 2.8 05:03:09 75° ESE 05:03:09 75° ESE 05:05:57 10° ENE
STARLINK-1125 2.7 05:03:21 76° ESE 05:03:21 76° ESE 05:06:09 10° ENE
Cosmos 1190 Rocket 4.0 05:00:01 10° SSW 05:05:18 83° ESE 05:10:39 10° NNE
STARLINK-1128 4.1 05:04:01 28° SSW 05:05:51 53° SE 05:09:48 10° ENE
STARLINK-1103 4.2 05:04:22 27° SSW 05:06:19 53° SE 05:10:19 10° ENE
PSLV R/B 4.0 05:04:27 10° NNE 05:08:11 69° ESE 05:11:59 10° S
CZ-4C R/B 3.9 05:07:04 16° NW 05:09:18 20° NNW 05:14:00 10° NNE
STARLINK-1113 4.0 05:08:39 26° SSW 05:10:42 58° SE 05:14:41 10° ENE
STARLINK-1101 4.1 05:09:02 25° SSW 05:11:10 57° SE 05:15:12 10° ENE
Meteor 1-27 4.2 05:05:56 10° SSW 05:11:24 59° WNW 05:16:55 10° N
Cosmos 1238 Rocket 4.0 05:05:33 10° N 05:11:39 69° ENE 05:16:46 10° SSE
Cosmos 1802 Rocket 4.2 05:05:14 10° N 05:11:42 79° E 05:18:07 10° SSE
USA 267 4.4 05:09:16 10° S 05:13:57 21° WSW 05:14:13 21° WSW
BREEZE-M DEB (TANK) 4.4 05:08:21 10° SW 05:14:15 32° SSE 05:16:54 10° E
STARLINK-1119 3.9 05:13:13 25° SW 05:15:25 62° SE 05:19:26 10° ENE
STARLINK-1179 4.4 05:15:26 21° N 05:15:55 22° NNE 05:18:05 10° ENE
STARLINK-1102 3.9 05:13:42 24° SW 05:16:01 62° SE 05:20:04 10° ENE
Meteor 1-31 Rocket 3.2 05:12:39 10° N 05:16:13 38° WNW 05:16:45 36° W
Cosmos 1238 4.0 05:14:46 23° SSW 05:16:28 69° W 05:19:37 10° N
STARLINK-1176 4.4 05:15:58 21° N 05:16:30 22° NNE 05:18:41 10° ENE
STARLINK-1114 3.8 05:17:35 23° SW 05:19:59 67° SE 05:24:01 10° ENE
STARLINK-1111 3.8 05:18:24 22° SW 05:20:54 67° SE 05:24:58 10° ENE
Meteor 2-2 Rocket 4.3 05:16:20 10° SSW 05:22:21 72° WNW 05:28:24 10° N
Cosmos 1943 Rocket 2.7 05:19:34 20° WNW 05:22:23 32° WSW 05:27:13 10° SSW
CZ-4B R/B 3.0 05:19:30 10° N 05:22:57 39° WNW 05:24:17 28° WSW
Cosmos 676 Rocket 4.3 05:17:45 10° SSW 05:23:03 73° ESE 05:28:23 10° NNE
STARLINK-1130 (DARKSAT) 3.7 05:21:45 22° SW 05:24:17 72° SE 05:28:20 10° ENE
STARLINK-1073 3.7 05:23:00 21° SW 05:25:42 72° SE 05:29:48 10° ENE
Lacrosse 5 2.7 05:24:33 25° W 05:26:12 31° SW 05:30:37 10° S
ATLAS CENTAUR R/B 3.4 05:28:31 14° NW 05:29:21 15° NNW 05:31:55 10° N
STARLINK-1084 3.6 05:26:38 20° SW 05:29:22 77° SSE 05:33:26 10° ENE
STARLINK-1121 3.7 05:27:43 19° SW 05:30:35 78° SSE 05:34:42 10° ENE
ALOS 2.2 05:29:44 10° N 05:34:22 65° WNW 05:38:59 10° SSW
Cosmos 2016 Rocket 4.0 05:28:30 10° N 05:34:47 85° W 05:41:06 10° S
STARLINK-1106 3.6 05:32:32 17° SW 05:35:36 83° SE 05:39:43 10° ENE
CZ-2C R/B 3.7 05:35:05 10° NNW 05:39:00 22° WNW 05:41:04 17° W
STARLINK-1112 3.6 05:37:13 16° WSW 05:40:29 89° SE 05:44:37 10° ENE
Cosmos 1869 3.8 05:37:20 10° SW 05:41:01 35° WNW 05:44:41 10° N
Cosmos 1400 Rocket 3.0 05:37:02 10° S 05:41:02 79° E 05:45:09 10° NNE
ISS -0.3 05:43:10 10° SE 05:43:34 10° SE 05:43:59 10° SE
STARLINK-1118 3.0 05:42:59 27° WNW 05:43:53 39° NNW 05:46:16 10° NE
FENGYUN 3A 3.7 05:38:52 10° N 05:44:15 61° WNW 05:49:35 10° SSW
ATLAS 2AS CENTAUR R/B 3.9 05:37:15 10° NW 05:44:37 45° NE 05:51:25 10° ESE
NOAA 6 4.2 05:39:25 10° NNE 05:44:38 79° ESE 05:49:47 10° S
Cosmos 1633 3.1 05:41:22 10° NNW 05:44:44 36° W 05:48:05 10° SSW
Sich 1 2.9 05:40:38 10° NNW 05:44:54 64° W 05:49:09 10° S
Cosmos 1805 Rocket 3.8 05:40:54 10° NNW 05:45:04 46° W 05:49:12 10° SSW
SL-16 R/B 3.8 05:43:29 14° WNW 05:45:30 17° NW 05:49:05 10° N
ADEOS Rocket 3.3 05:40:55 10° SSE 05:47:12 85° ENE 05:54:17 10° NNW
H-2A R/B 3.7 05:44:06 10° N 05:47:40 25° WNW 05:51:18 10° WSW
SKYMED 2 4.2 05:44:00 10° SSW 05:47:56 33° W 05:51:54 10° NNW
Cosmos 2084 3.5 05:44:48 10° SW 05:49:18 71° NW 05:53:47 10° NE
STARLINK-1129 4.3 05:48:55 12° NW 05:51:35 33° NNE 05:54:36 10° E
TELKOM 3 3.7 05:50:43 18° NW 05:51:56 36° N 05:53:56 10° E
Cosmos 2233 Rocket 4.4 05:45:41 10° N 05:51:57 70° E 05:58:15 10° SSE
STARLINK-1134 4.3 05:51:01 12° NW 05:53:46 33° NNE 05:56:49 10° E
Cosmos 2369 Rocket 3.2 05:50:04 10° NW 05:54:33 24° WSW 05:59:00 10° SSW
STARLINK-1135 4.2 05:53:26 11° NW 05:56:17 34° NNE 05:59:21 10° E
H-2A R/B 3.6 05:52:55 10° NNE 05:56:38 54° E 06:00:15 10° S
Aureole 2 Rocket 4.0 05:57:41 13° WSW 05:57:41 13° WSW 05:59:17 10° SW
STARLINK-1141 4.2 05:55:41 11° NW 05:58:39 35° NNE 06:01:43 10° E
STARLINK-1140 4.2 05:57:56 10° NW 06:01:01 36° NNE 06:04:06 10° E
Cosmos 1603 4.4 05:56:12 10° WSW 06:01:18 33° NW 06:06:24 10° NNE
STARLINK-1149 3.8 05:59:44 10° NW 06:02:17 35° NNE 06:04:52 10° E
Cosmos 2173 Rocket 4.5 05:57:19 10° NNW 06:02:58 36° W 06:08:32 10° SSW
Cosmos 1656 Rocket 4.1 05:57:46 10° NW 06:03:07 43° WSW 06:08:25 10° S
STARLINK-1156 4.1 06:00:16 10° NW 06:03:22 37° NNE 06:06:28 10° E
Cosmos 1943 3.7 05:59:52 10° WSW 06:05:04 37° NW 06:10:18 10° NNE
STARLINK-1148 4.1 06:02:38 10° NW 06:05:45 38° NNE 06:08:52 10° E
STARLINK-1153 3.9 06:03:28 10° NW 06:06:14 36° NNE 06:08:59 10° E
STARLINK-1180 3.9 06:03:41 10° NW 06:06:27 36° NNE 06:09:13 10° E
STARLINK-1174 3.9 06:04:09 10° NW 06:06:55 36° NNE 06:09:40 10° E
STARLINK-1139 3.9 06:04:23 10° NW 06:07:09 36° NNE 06:09:54 10° E
STARLINK-1133 3.9 06:04:37 10° NW 06:07:22 36° NNE 06:10:07 10° E
Okean O Rocket 1.6 06:03:10 10° N 06:07:32 66° WNW 06:11:49 10° SSW
STARLINK-1151 3.8 06:04:51 10° NW 06:07:36 37° NNE 06:10:22 10° E
STARLINK-1158 4.1 06:04:58 10° NW 06:08:06 39° NNE 06:11:14 10° E
STARLINK-1160 3.8 06:05:31 10° NW 06:08:17 37° NNE 06:11:03 10° E
STARLINK-1161 3.8 06:05:43 10° NW 06:08:30 37° NNE 06:11:15 10° E
CZ-4B DEB 4.4 06:03:23 10° N 06:08:40 50° WNW 06:13:55 10° SW
Shenzhou-11 Module 2.7 06:06:11 10° WSW 06:08:40 38° S 06:11:10 10° ESE
STARLINK-1145 3.8 06:05:57 10° NW 06:08:44 37° NNE 06:11:29 10° E
STARLINK-1172 3.8 06:06:09 10° NW 06:08:56 37° NNE 06:11:42 10° E
STARLINK-1182 3.8 06:06:37 10° NW 06:09:23 37° NNE 06:12:10 10° E
STARLINK-1164 3.8 06:06:50 10° NW 06:09:37 38° NNE 06:12:23 10° E
STARLINK-1168 3.8 06:07:04 10° NW 06:09:50 38° NNE 06:12:36 10° E
STARLINK-1183 3.8 06:07:45 10° NW 06:10:31 38° NNE 06:13:17 10° E
STARLINK-1181 3.8 06:07:58 10° NW 06:10:44 38° NNE 06:13:30 10° E
Cosmos 1151 Rocket 3.0 06:06:41 10° S 06:10:59 89° WSW 06:15:22 10° N
STARLINK-1196 3.8 06:08:38 10° NW 06:11:26 38° NNE 06:14:12 10° E
STARLINK-1186 3.8 06:09:05 10° NW 06:11:52 39° NNE 06:14:38 10° E
STARLINK-1185 3.8 06:09:18 10° NW 06:12:06 39° NNE 06:14:52 10° E
STARLINK-1175 3.7 06:09:32 10° NW 06:12:19 39° NNE 06:15:06 10° E
STARLINK-1147 3.8 06:09:45 10° NW 06:12:33 39° NNE 06:15:20 10° E
STARLINK-1132 3.6 06:09:53 10° NW 06:12:35 41° NNE 06:15:16 10° E
STARLINK-1146 3.7 06:09:58 10° NW 06:12:46 39° NNE 06:15:34 10° E
STARLINK-1152 3.7 06:10:13 10° NW 06:13:01 39° NNE 06:15:49 10° E
STARLINK-1195 3.7 06:10:26 10° NW 06:13:14 39° NNE 06:16:02 10° E
STARLINK-1137 3.7 06:10:40 10° NW 06:13:27 39° NNE 06:16:15 10° E
SMAP 3.6 06:09:00 10° NNE 06:13:40 67° ESE 06:18:18 10° S
STARLINK-1142 3.7 06:10:53 10° NW 06:13:41 40° NNE 06:16:28 10° E
STARLINK-1127 3.7 06:11:05 10° NW 06:13:53 40° NNE 06:16:41 10° E
STARLINK-1184 3.7 06:11:19 10° NW 06:14:07 40° NNE 06:16:55 10° E
STARLINK-1193 3.7 06:11:33 10° NW 06:14:21 40° NNE 06:17:09 10° E
STARLINK-1194 3.7 06:11:46 10° NW 06:14:35 40° NNE 06:17:23 10° E
STARLINK-1150 3.5 06:12:10 10° NW 06:14:52 42° NNE 06:17:33 10° E
CZ-4B R/B 3.1 06:09:57 10° N 06:15:15 67° WNW 06:20:29 10° SSW
STARLINK-1163 3.5 06:13:25 10° NW 06:16:08 43° NNE 06:18:49 10° E
STARLINK-1098 3.8 06:12:34 10° WSW 06:16:36 58° NNW 06:20:40 10° NE
STARLINK-1177 3.4 06:15:10 10° NW 06:17:52 44° NNE 06:20:34 10° E
STARLINK-1173 3.4 06:15:13 10° NW 06:17:57 44° NNE 06:20:39 10° E
STARLINK-1167 3.4 06:15:40 10° NW 06:18:23 45° NNE 06:21:07 10° E
Cosmos 1328 Rocket 3.5 06:14:32 10° SSW 06:18:58 73° W 06:23:26 10° N
Cosmos 1862 4.2 06:15:39 10° NNW 06:19:03 28° W 06:22:27 10° SSW
Helios 1A Rocket 2.9 06:16:33 10° N 06:20:41 69° WNW 06:24:46 10° SSW
Cosmos 1140 Rocket 4.3 06:16:14 10° WSW 06:20:49 30° WNW 06:25:26 10° N
STARLINK-1123 3.8 06:17:04 10° WSW 06:21:04 55° NNW 06:25:06 10° NE
USA 215 4.3 06:15:32 10° ENE 06:21:19 35° N 06:27:06 10° WNW
Cosmos 1954 Rocket 4.5 06:16:34 10° SW 06:21:35 41° WNW 06:26:37 10° N
